owner,sensor,date,latitude,longitude,vertical_datum,wind_speed,wind_to_direction,wind_speed_of_gust,qcFlag 
TABS,ioos:station:wmo:42047:1,2006-08-25T00:00:00Z,27.8966,-93.5973,4.0,0.511957029,102.4078104,1.46,'11111222,11111222,11111222' 
TABS,ioos:station:wmo:42047:1,2006-08-25T00:30:00Z,27.8966,-93.5973,4.0,0.49979996,19.88490816,1.23,'11111222,11111222,11111222' 
TABS,ioos:station:wmo:42047:1,2006-08-25T01:00:00Z,27.8966,-93.5973,4.0,0.478016736,37.34905125,1.33,'11111222,11111222,11111222' 
TABS,ioos:station:wmo:42047:1,2006-08-25T01:30:00Z,27.8966,-93.5973,4.0,0.531507291,11.9439388,1.39,'11111222,11111222,11111222' 
TABS,ioos:station:wmo:42047:1,2006-08-25T02:00:00Z,27.8966,-93.5973,4.0,0.532353266,5.389088699,1.3,'11111222,11111222,11111222' 
TABS,ioos:station:wmo:42047:1,2006-08-25T02:30:00Z,27.8966,-93.5973,4.0,0.681835757,355.7944424,1.58,'11111222,11111222,11111222' 
TABS,ioos:station:wmo:42047:1,2006-08-25T03:00:00Z,27.8966,-93.5973,4.0,0.54405882,342.8971006,1.41,'11111222,11111222,11111222' 
TABS,ioos:station:wmo:42047:1,2006-08-25T03:30:00Z,27.8966,-93.5973,4.0,0.220227155,92.60297703,0.81,'11111222,11111222,11111222' 
TABS,ioos:station:wmo:42047:1,2006-08-25T04:00:00Z,27.8966,-93.5973,4.0,0.347131099,78.36597229,1.15,'11111222,11111222,11111222' 
TABS,ioos:station:wmo:42047:1,2006-08-25T04:30:00Z,27.8966,-93.5973,4.0,0.080622577,60.25476734,0.89,'11111222,11111222,11111222' 
TABS,ioos:station:wmo:42047:1,2006-08-25T05:00:00Z,27.8966,-93.5973,4.0,0.302324329,214.2158326,1.25,'11111222,11111222,11111222' 
TABS,ioos:station:wmo:42047:1,2006-08-25T05:30:00Z,27.8966,-93.5973,4.0,5.284921948,157.9975329,6.85,'11111222,11111222,11111222' 
TABS,ioos:station:wmo:42047:1,2006-08-25T06:00:00Z,27.8966,-93.5973,4.0,5.56138472,165.7391162,7.02,'11111222,11111222,11111222' 
TABS,ioos:station:wmo:42047:1,2006-08-25T06:30:00Z,27.8966,-93.5973,4.0,5.706356105,167.4496508,7.66,'11111222,11111222,11111222' 
TABS,ioos:station:wmo:42047:1,2006-08-25T07:00:00Z,27.8966,-93.5973,4.0,5.706881811,166.1100997,7.57,'11111222,11111222,11111222' 
TABS,ioos:station:wmo:42047:1,2006-08-25T07:30:00Z,27.8966,-93.5973,4.0,5.468034382,168.0738041,7.33,'11111222,11111222,11111222' 
TABS,ioos:station:wmo:42047:1,2006-08-25T08:00:00Z,27.8966,-93.5973,4.0,5.98101162,178.946396,7.34,'11111222,11111222,11111222' 
TABS,ioos:station:wmo:42047:1,2006-08-25T08:30:00Z,27.8966,-93.5973,4.0,5.927098784,182.804681,7.96,'11111222,11111222,11111222' 
TABS,ioos:station:wmo:42047:1,2006-08-25T09:00:00Z,27.8966,-93.5973,4.0,6.100819617,179.0610217,7.73,'11111222,11111222,11111222' 
TABS,ioos:station:wmo:42047:1,2006-08-25T09:30:00Z,27.8966,-93.5973,4.0,6.210161029,184.6182653,7.86,'11111222,11111222,11111222' 
TABS,ioos:station:wmo:42047:1,2006-08-25T10:00:00Z,27.8966,-93.5973,4.0,6.747006744,189.7277663,8.86,'11111222,11111222,11111222' 
TABS,ioos:station:wmo:42047:1,2006-08-25T10:30:00Z,27.8966,-93.5973,4.0,7.118461913,194.2316355,9.02,'11111222,11111222,11111222' 
TABS,ioos:station:wmo:42047:1,2006-08-25T11:00:00Z,27.8966,-93.5973,4.0,7.297896957,194.0364211,9.17,'11111222,11111222,11111222' 
TABS,ioos:station:wmo:42047:1,2006-08-25T11:30:00Z,27.8966,-93.5973,4.0,6.503145393,209.6794541,8.34,'11111222,11111222,11111222' 
TABS,ioos:station:wmo:42047:1,2006-08-25T12:00:00Z,27.8966,-93.5973,4.0,6.386274344,202.2680542,8.17,'11111222,11111222,11111222' 
TABS,ioos:station:wmo:42047:1,2006-08-25T12:30:00Z,27.8966,-93.5973,4.0,6.832349523,197.1090649,8.35,'11111222,11111222,11111222' 
TABS,ioos:station:wmo:42047:1,2006-08-25T13:00:00Z,27.8966,-93.5973,4.0,6.22653194,198.3478197,7.55,'11111222,11111222,11111222' 
TABS,ioos:station:wmo:42047:1,2006-08-25T13:30:00Z,27.8966,-93.5973,4.0,6.125430597,198.760488,7.74,'11111222,11111222,11111222' 
TABS,ioos:station:wmo:42047:1,2006-08-25T14:00:00Z,27.8966,-93.5973,4.0,6.063472602,193.7384864,7.15,'11111222,11111222,11111222' 
TABS,ioos:station:wmo:42047:1,2006-08-25T14:30:00Z,27.8966,-93.5973,4.0,6.475708455,194.1222572,8.07,'11111222,11111222,11111222' 
TABS,ioos:station:wmo:42047:1,2006-08-25T15:00:00Z,27.8966,-93.5973,4.0,6.245806593,195.7943603,7.58,'11111222,11111222,11111222' 
TABS,ioos:station:wmo:42047:1,2006-08-25T15:30:00Z,27.8966,-93.5973,4.0,6.431500603,200.858584,7.72,'11111222,11111222,11111222' 
TABS,ioos:station:wmo:42047:1,2006-08-25T16:00:00Z,27.8966,-93.5973,4.0,5.877363354,201.4576182,7.04,'11111222,11111222,11111222' 
TABS,ioos:station:wmo:42047:1,2006-08-25T16:30:00Z,27.8966,-93.5973,4.0,5.219051638,206.270623,6.47,'11111222,11111222,11111222' 
TABS,ioos:station:wmo:42047:1,2006-08-25T17:00:00Z,27.8966,-93.5973,4.0,6.279530237,200.0222469,8.08,'11111222,11111222,11111222' 
TABS,ioos:station:wmo:42047:1,2006-08-25T17:30:00Z,27.8966,-93.5973,4.0,5.949453756,205.2730357,7.23,'11111222,11111222,11111222' 
TABS,ioos:station:wmo:42047:1,2006-08-25T18:00:00Z,27.8966,-93.5973,4.0,6.080032895,202.4315507,7.73,'11111222,11111222,11111222' 
TABS,ioos:station:wmo:42047:1,2006-08-25T18:30:00Z,27.8966,-93.5973,4.0,5.456784768,199.9294463,6.84,'11111222,11111222,11111222' 
TABS,ioos:station:wmo:42047:1,2006-08-25T19:00:00Z,27.8966,-93.5973,4.0,8.39081045,214.5614047,11.32,'11111222,11111222,11111222' 
TABS,ioos:station:wmo:42047:1,2006-08-25T19:30:00Z,27.8966,-93.5973,4.0,4.491736858,226.5336381,5.6,'11111222,11111222,11111222' 
TABS,ioos:station:wmo:42047:1,2006-08-25T20:00:00Z,27.8966,-93.5973,4.0,2.932047066,259.1883044,5.75,'11111222,11111222,11111222' 
TABS,ioos:station:wmo:42047:1,2006-08-25T20:30:00Z,27.8966,-93.5973,4.0,4.188520025,294.5457866,6.61,'11111222,11111222,11111222' 
TABS,ioos:station:wmo:42047:1,2006-08-25T21:00:00Z,27.8966,-93.5973,4.0,8.112829346,217.6892825,10.96,'11111222,11111222,11111222' 
TABS,ioos:station:wmo:42047:1,2006-08-25T21:30:00Z,27.8966,-93.5973,4.0,1.180677771,268.0585181,3.21,'11111222,11111222,11111222' 
TABS,ioos:station:wmo:42047:1,2006-08-25T22:00:00Z,27.8966,-93.5973,4.0,1.486606875,259.143612,2.29,'11111222,11111222,11111222' 
TABS,ioos:station:wmo:42047:1,2006-08-25T22:30:00Z,27.8966,-93.5973,4.0,0.212602916,41.1856184,1.25,'11111222,11111222,11111222' 
TABS,ioos:station:wmo:42047:1,2006-08-25T23:00:00Z,27.8966,-93.5973,4.0,1.220901306,160.3780002,1.95,'11111222,11111222,11111222' 
TABS,ioos:station:wmo:42047:1,2006-08-25T23:30:00Z,27.8966,-93.5973,4.0,0.477598157,199.5732905,1.55,'11111222,11111222,11111222' 
TABS,ioos:station:wmo:42047:1,2006-08-26T00:00:00Z,27.8966,-93.5973,4.0,2.90056891,171.6745796,6.16,'11111222,11111222,11111222' 
TABS,ioos:station:wmo:42047:1,2006-08-26T00:30:00Z,27.8966,-93.5973,4.0,3.409061454,173.9384358,4.86,'11111222,11111222,11111222' 
TABS,ioos:station:wmo:42047:1,2006-08-26T01:00:00Z,27.8966,-93.5973,4.0,5.291219141,168.7752497,6.92,'11111222,11111222,11111222' 
TABS,ioos:station:wmo:42047:1,2006-08-26T01:30:00Z,27.8966,-93.5973,4.0,5.204632552,164.2816743,6.59,'11111222,11111222,11111222' 
TABS,ioos:station:wmo:42047:1,2006-08-26T02:00:00Z,27.8966,-93.5973,4.0,5.138813093,152.7869955,7.36,'11111222,11111222,11111222' 
TABS,ioos:station:wmo:42047:1,2006-08-26T02:30:00Z,27.8966,-93.5973,4.0,5.642783001,144.0848996,7.16,'11111222,11111222,11111222' 
TABS,ioos:station:wmo:42047:1,2006-08-26T03:00:00Z,27.8966,-93.5973,4.0,5.01952189,129.0166721,6.72,'11111222,11111222,11111222' 
TABS,ioos:station:wmo:42047:1,2006-08-26T03:30:00Z,27.8966,-93.5973,4.0,5.320150374,133.1723517,6.81,'11111222,11111222,11111222' 
TABS,ioos:station:wmo:42047:1,2006-08-26T04:00:00Z,27.8966,-93.5973,4.0,6.540374607,150.1032771,8.44,'11111222,11111222,11111222' 
TABS,ioos:station:wmo:42047:1,2006-08-26T04:30:00Z,27.8966,-93.5973,4.0,6.873929007,151.309991,8.56,'11111222,11111222,11111222' 
TABS,ioos:station:wmo:42047:1,2006-08-26T05:00:00Z,27.8966,-93.5973,4.0,6.909384922,156.9976677,8.61,'11111222,11111222,11111222' 
TABS,ioos:station:wmo:42047:1,2006-08-26T05:30:00Z,27.8966,-93.5973,4.0,7.142618567,162.9859861,8.8,'11111222,11111222,11111222' 
TABS,ioos:station:wmo:42047:1,2006-08-26T06:00:00Z,27.8966,-93.5973,4.0,7.269724892,166.8815693,9.43,'11111222,11111222,11111222' 
TABS,ioos:station:wmo:42047:1,2006-08-26T06:30:00Z,27.8966,-93.5973,4.0,7.610026281,163.5894642,9.54,'11111222,11111222,11111222' 
TABS,ioos:station:wmo:42047:1,2006-08-26T07:00:00Z,27.8966,-93.5973,4.0,7.524925249,162.8415414,9.23,'11111222,11111222,11111222' 
TABS,ioos:station:wmo:42047:1,2006-08-26T07:30:00Z,27.8966,-93.5973,4.0,7.222644945,161.5151334,9.02,'11111222,11111222,11111222' 
TABS,ioos:station:wmo:42047:1,2006-08-26T08:00:00Z,27.8966,-93.5973,4.0,6.660825775,169.5338189,8.37,'11111222,11111222,11111222' 
TABS,ioos:station:wmo:42047:1,2006-08-26T08:30:00Z,27.8966,-93.5973,4.0,6.908675705,173.9347868,8.67,'11111222,11111222,11111222' 
TABS,ioos:station:wmo:42047:1,2006-08-26T09:00:00Z,27.8966,-93.5973,4.0,6.762018929,171.0672497,8.24,'11111222,11111222,11111222' 
TABS,ioos:station:wmo:42047:1,2006-08-26T09:30:00Z,27.8966,-93.5973,4.0,6.576473219,171.2540686,8.29,'11111222,11111222,11111222' 
TABS,ioos:station:wmo:42047:1,2006-08-26T10:00:00Z,27.8966,-93.5973,4.0,6.413930152,172.5649686,7.95,'11111222,11111222,11111222' 
TABS,ioos:station:wmo:42047:1,2006-08-26T10:30:00Z,27.8966,-93.5973,4.0,6.487256739,172.3822394,8.18,'11111222,11111222,11111222' 
TABS,ioos:station:wmo:42047:1,2006-08-26T11:00:00Z,27.8966,-93.5973,4.0,6.041936776,169.9922541,7.31,'11111222,11111222,11111222' 
TABS,ioos:station:wmo:42047:1,2006-08-26T11:30:00Z,27.8966,-93.5973,4.0,6.091411987,171.2183125,7.23,'11111222,11111222,11111222' 
TABS,ioos:station:wmo:42047:1,2006-08-26T12:00:00Z,27.8966,-93.5973,4.0,5.486638315,174.3519763,6.55,'11111222,11111222,11111222' 
TABS,ioos:station:wmo:42047:1,2006-08-26T12:30:00Z,27.8966,-93.5973,4.0,5.561762311,178.5578191,7.22,'11111222,11111222,11111222' 
TABS,ioos:station:wmo:42047:1,2006-08-26T13:00:00Z,27.8966,-93.5973,4.0,4.802665926,181.9093584,5.9,'11111222,11111222,11111222' 
TABS,ioos:station:wmo:42047:1,2006-08-26T13:30:00Z,27.8966,-93.5973,4.0,9.692409401,169.1772245,16.51,'11111222,11111222,11111222' 
TABS,ioos:station:wmo:42047:1,2006-08-26T14:00:00Z,27.8966,-93.5973,4.0,0.958175349,288.2458119,1.6,'11111222,11111222,11111222' 
TABS,ioos:station:wmo:42047:1,2006-08-26T14:30:00Z,27.8966,-93.5973,4.0,1.074476617,194.5537492,2.2,'11111222,11111222,11111222' 
TABS,ioos:station:wmo:42047:1,2006-08-26T15:00:00Z,27.8966,-93.5973,4.0,5.177074463,189.899179,6.44,'11111222,11111222,11111222' 
TABS,ioos:station:wmo:42047:1,2006-08-26T15:30:00Z,27.8966,-93.5973,4.0,4.466519898,209.9518648,5.48,'11111222,11111222,11111222' 
TABS,ioos:station:wmo:42047:1,2006-08-26T16:00:00Z,27.8966,-93.5973,4.0,4.053159262,200.3576673,5.46,'11111222,11111222,11111222' 
TABS,ioos:station:wmo:42047:1,2006-08-26T16:30:00Z,27.8966,-93.5973,4.0,4.335204724,200.5252704,5.48,'11111222,11111222,11111222' 
TABS,ioos:station:wmo:42047:1,2006-08-26T17:00:00Z,27.8966,-93.5973,4.0,4.827463102,196.8585698,6.13,'11111222,11111222,11111222' 
TABS,ioos:station:wmo:42047:1,2006-08-26T17:30:00Z,27.8966,-93.5973,4.0,4.819595419,194.7860949,6.07,'11111222,11111222,11111222' 
TABS,ioos:station:wmo:42047:1,2006-08-26T18:00:00Z,27.8966,-93.5973,4.0,4.987544486,214.7098138,6.69,'11111222,11111222,11111222' 
TABS,ioos:station:wmo:42047:1,2006-08-26T18:30:00Z,27.8966,-93.5973,4.0,4.009301685,261.9709671,5.44,'11111222,11111222,11111222' 
TABS,ioos:station:wmo:42047:1,2006-08-26T19:00:00Z,27.8966,-93.5973,4.0,2.96664794,305.6723021,3.85,'11111222,11111222,11111222' 
TABS,ioos:station:wmo:42047:1,2006-08-26T19:30:00Z,27.8966,-93.5973,4.0,2.457356303,28.96373977,3.64,'11111222,11111222,11111222' 
TABS,ioos:station:wmo:42047:1,2006-08-26T20:00:00Z,27.8966,-93.5973,4.0,3.756647442,122.1673983,6.8,'11111222,11111222,11111222' 
TABS,ioos:station:wmo:42047:1,2006-08-26T20:30:00Z,27.8966,-93.5973,4.0,1.937240305,130.1845824,3.5,'11111222,11111222,11111222' 
TABS,ioos:station:wmo:42047:1,2006-08-26T21:00:00Z,27.8966,-93.5973,4.0,2.55785066,156.7428491,3.34,'11111222,11111222,11111222' 
TABS,ioos:station:wmo:42047:1,2006-08-26T21:30:00Z,27.8966,-93.5973,4.0,3.169921135,113.8160364,4.29,'11111222,11111222,11111222' 
TABS,ioos:station:wmo:42047:1,2006-08-26T22:00:00Z,27.8966,-93.5973,4.0,4.072959612,98.32944667,5.26,'11111222,11111222,11111222' 
TABS,ioos:station:wmo:42047:1,2006-08-26T22:30:00Z,27.8966,-93.5973,4.0,5.008492787,112.4178379,6.43,'11111222,11111222,11111222' 
TABS,ioos:station:wmo:42047:1,2006-08-26T23:00:00Z,27.8966,-93.5973,4.0,5.223609863,111.8017794,6.48,'11111222,11111222,11111222' 
TABS,ioos:station:wmo:42047:1,2006-08-26T23:30:00Z,27.8966,-93.5973,4.0,5.677358541,121.8987547,7.08,'11111222,11111222,11111222' 
TABS,ioos:station:wmo:42047:1,2006-08-27T00:00:00Z,27.8966,-93.5973,4.0,5.996565684,123.1604003,7.82,'11111222,11111222,11111222' 
TABS,ioos:station:wmo:42047:1,2006-08-27T00:30:00Z,27.8966,-93.5973,4.0,5.896778782,123.0975314,7.71,'11111222,11111222,11111222' 
TABS,ioos:station:wmo:42047:1,2006-08-27T01:00:00Z,27.8966,-93.5973,4.0,6.118472031,126.1585218,7.63,'11111222,11111222,11111222' 
TABS,ioos:station:wmo:42047:1,2006-08-27T01:30:00Z,27.8966,-93.5973,4.0,5.722805256,127.8314113,7.41,'11111222,11111222,11111222' 
TABS,ioos:station:wmo:42047:1,2006-08-27T02:00:00Z,27.8966,-93.5973,4.0,5.577813192,132.3845669,6.98,'11111222,11111222,11111222' 
TABS,ioos:station:wmo:42047:1,2006-08-27T02:30:00Z,27.8966,-93.5973,4.0,5.550441424,130.0305866,6.87,'11111222,11111222,11111222' 
TABS,ioos:station:wmo:42047:1,2006-08-27T03:00:00Z,27.8966,-93.5973,4.0,6.225399586,141.9154422,7.94,'11111222,11111222,11111222' 
TABS,ioos:station:wmo:42047:1,2006-08-27T03:30:00Z,27.8966,-93.5973,4.0,6.712525605,148.7730326,8.53,'11111222,11111222,11111222' 
TABS,ioos:station:wmo:42047:1,2006-08-27T04:00:00Z,27.8966,-93.5973,4.0,7.031841864,152.1961958,8.64,'11111222,11111222,11111222' 
TABS,ioos:station:wmo:42047:1,2006-08-27T04:30:00Z,27.8966,-93.5973,4.0,6.875885398,151.9817075,8.88,'11111222,11111222,11111222' 
TABS,ioos:station:wmo:42047:1,2006-08-27T05:00:00Z,27.8966,-93.5973,4.0,6.515903621,153.4745458,8.2,'11111222,11111222,11111222' 
TABS,ioos:station:wmo:42047:1,2006-08-27T05:30:00Z,27.8966,-93.5973,4.0,6.557812135,154.7247419,8.42,'11111222,11111222,11111222' 
TABS,ioos:station:wmo:42047:1,2006-08-27T06:00:00Z,27.8966,-93.5973,4.0,6.237707912,158.6593905,8.08,'11111222,11111222,11111222' 
TABS,ioos:station:wmo:42047:1,2006-08-27T06:30:00Z,27.8966,-93.5973,4.0,6.274679275,164.2806216,8.06,'11111222,11111222,11111222' 
TABS,ioos:station:wmo:42047:1,2006-08-27T07:00:00Z,27.8966,-93.5973,4.0,5.761709816,167.2664974,7.53,'11111222,11111222,11111222' 
TABS,ioos:station:wmo:42047:1,2006-08-27T07:30:00Z,27.8966,-93.5973,4.0,5.831243435,170.4248376,7.47,'11111222,11111222,11111222' 
TABS,ioos:station:wmo:42047:1,2006-08-27T08:00:00Z,27.8966,-93.5973,4.0,4.908574131,176.6131946,6.39,'11111222,11111222,11111222' 
TABS,ioos:station:wmo:42047:1,2006-08-27T08:30:00Z,27.8966,-93.5973,4.0,5.010359269,180.6863531,6.46,'11111222,11111222,11111222' 
TABS,ioos:station:wmo:42047:1,2006-08-27T09:00:00Z,27.8966,-93.5973,4.0,4.977881075,176.7756954,6.62,'11111222,11111222,11111222' 
TABS,ioos:station:wmo:42047:1,2006-08-27T09:30:00Z,27.8966,-93.5973,4.0,4.967896939,176.7692081,6.45,'11111222,11111222,11111222' 
TABS,ioos:station:wmo:42047:1,2006-08-27T10:00:00Z,27.8966,-93.5973,4.0,5.665589113,175.7488844,7.21,'11111222,11111222,11111222' 
TABS,ioos:station:wmo:42047:1,2006-08-27T10:30:00Z,27.8966,-93.5973,4.0,5.647831442,174.3098194,7.28,'11111222,11111222,11111222' 
TABS,ioos:station:wmo:42047:1,2006-08-27T11:00:00Z,27.8966,-93.5973,4.0,6.148373769,185.506793,7.51,'11111222,11111222,11111222' 
TABS,ioos:station:wmo:42047:1,2006-08-27T11:30:00Z,27.8966,-93.5973,4.0,5.684091836,184.0355458,7.36,'11111222,11111222,11111222' 
TABS,ioos:station:wmo:42047:1,2006-08-27T12:00:00Z,27.8966,-93.5973,4.0,5.239179325,183.3923506,6.69,'11111222,11111222,11111222' 
TABS,ioos:station:wmo:42047:1,2006-08-27T12:30:00Z,27.8966,-93.5973,4.0,5.306646776,184.5396808,6.66,'11111222,11111222,11111222' 
TABS,ioos:station:wmo:42047:1,2006-08-27T13:00:00Z,27.8966,-93.5973,4.0,4.342591392,178.0207342,5.62,'11111222,11111222,11111222' 
TABS,ioos:station:wmo:42047:1,2006-08-27T13:30:00Z,27.8966,-93.5973,4.0,4.480055803,176.1606231,5.78,'11111222,11111222,11111222' 
TABS,ioos:station:wmo:42047:1,2006-08-27T14:00:00Z,27.8966,-93.5973,4.0,4.721493408,185.4692926,5.99,'11111222,11111222,11111222' 
TABS,ioos:station:wmo:42047:1,2006-08-27T14:30:00Z,27.8966,-93.5973,4.0,4.290571058,180.9350215,5.76,'11111222,11111222,11111222' 
TABS,ioos:station:wmo:42047:1,2006-08-27T15:00:00Z,27.8966,-93.5973,4.0,4.452201703,181.8021757,5.79,'11111222,11111222,11111222' 
TABS,ioos:station:wmo:42047:1,2006-08-27T15:30:00Z,27.8966,-93.5973,4.0,4.320011574,180.132839,5.32,'11111222,11111222,11111222' 
TABS,ioos:station:wmo:42047:1,2006-08-27T16:00:00Z,27.8966,-93.5973,4.0,4.210047506,179.7280242,5.82,'11111222,11111222,11111222' 
TABS,ioos:station:wmo:42047:1,2006-08-27T16:30:00Z,27.8966,-93.5973,4.0,4.073438351,190.8963371,5.09,'11111222,11111222,11111222' 
TABS,ioos:station:wmo:42047:1,2006-08-27T17:00:00Z,27.8966,-93.5973,4.0,4.371372782,187.8893236,5.51,'11111222,11111222,11111222' 
TABS,ioos:station:wmo:42047:1,2006-08-27T17:30:00Z,27.8966,-93.5973,4.0,4.351057343,175.9146032,5.46,'11111222,11111222,11111222' 
TABS,ioos:station:wmo:42047:1,2006-08-27T18:00:00Z,27.8966,-93.5973,4.0,4.274681275,177.3185336,5.33,'11111222,11111222,11111222' 
TABS,ioos:station:wmo:42047:1,2006-08-27T18:30:00Z,27.8966,-93.5973,4.0,4.65017204,179.5073568,5.95,'11111222,11111222,11111222' 
TABS,ioos:station:wmo:42047:1,2006-08-27T19:00:00Z,27.8966,-93.5973,4.0,4.924063363,177.6724008,6.71,'11111222,11111222,11111222' 
TABS,ioos:station:wmo:42047:1,2006-08-27T19:30:00Z,27.8966,-93.5973,4.0,4.133098112,177.7816339,5.18,'11111222,11111222,11111222' 
TABS,ioos:station:wmo:42047:1,2006-08-27T20:00:00Z,27.8966,-93.5973,4.0,4.313757063,182.3916783,5.72,'11111222,11111222,11111222' 
TABS,ioos:station:wmo:42047:1,2006-08-27T20:30:00Z,27.8966,-93.5973,4.0,4.300011628,180.1334559,5.54,'11111222,11111222,11111222' 
TABS,ioos:station:wmo:42047:1,2006-08-27T21:00:00Z,27.8966,-93.5973,4.0,3.95045567,180.8704571,4.93,'11111222,11111222,11111222' 
TABS,ioos:station:wmo:42047:1,2006-08-27T21:30:00Z,27.8966,-93.5973,4.0,4.193149175,171.7735072,5.21,'11111222,11111222,11111222' 
TABS,ioos:station:wmo:42047:1,2006-08-27T22:00:00Z,27.8966,-93.5973,4.0,3.947416877,171.1106091,5.21,'11111222,11111222,11111222' 
TABS,ioos:station:wmo:42047:1,2006-08-27T22:30:00Z,27.8966,-93.5973,4.0,3.42242604,172.1068846,4.69,'11111222,11111222,11111222' 
TABS,ioos:station:wmo:42047:1,2006-08-27T23:00:00Z,27.8966,-93.5973,4.0,3.002615527,168.2786511,3.99,'11111222,11111222,11111222' 
TABS,ioos:station:wmo:42047:1,2006-08-27T23:30:00Z,27.8966,-93.5973,4.0,3.530014164,151.765479,4.45,'11111222,11111222,11111222' 
TABS,ioos:station:wmo:42047:1,2006-08-28T00:00:00Z,27.8966,-93.5973,4.0,3.820274859,159.1458012,4.88,'11111222,11111222,11111222' 
TABS,ioos:station:wmo:42047:1,2006-08-28T00:30:00Z,27.8966,-93.5973,4.0,3.867609081,169.2713762,5.17,'11111222,11111222,11111222' 
TABS,ioos:station:wmo:42047:1,2006-08-28T01:00:00Z,27.8966,-93.5973,4.0,4.171918024,160.3926236,5.37,'11111222,11111222,11111222' 
TABS,ioos:station:wmo:42047:1,2006-08-28T01:30:00Z,27.8966,-93.5973,4.0,4.119283918,156.235494,5.32,'11111222,11111222,11111222' 
TABS,ioos:station:wmo:42047:1,2006-08-28T02:00:00Z,27.8966,-93.5973,4.0,4.125542389,165.829266,5.63,'11111222,11111222,11111222' 
TABS,ioos:station:wmo:42047:1,2006-08-28T02:30:00Z,27.8966,-93.5973,4.0,3.415318433,165.0688282,4.71,'11111222,11111222,11111222' 
TABS,ioos:station:wmo:42047:1,2006-08-28T03:00:00Z,27.8966,-93.5973,4.0,3.721464765,167.27104,5.71,'11111222,11111222,11111222' 
TABS,ioos:station:wmo:42047:1,2006-08-28T03:30:00Z,27.8966,-93.5973,4.0,3.950316443,179.2749879,5.45,'11111222,11111222,11111222' 
TABS,ioos:station:wmo:42047:1,2006-08-28T04:00:00Z,27.8966,-93.5973,4.0,4.533530633,184.4279847,6.3,'11111222,11111222,11111222' 
TABS,ioos:station:wmo:42047:1,2006-08-28T04:30:00Z,27.8966,-93.5973,4.0,4.88369737,177.7705636,6.45,'11111222,11111222,11111222' 
TABS,ioos:station:wmo:42047:1,2006-08-28T05:00:00Z,27.8966,-93.5973,4.0,4.505640909,186.1156997,5.75,'11111222,11111222,11111222' 
TABS,ioos:station:wmo:42047:1,2006-08-28T05:30:00Z,27.8966,-93.5973,4.0,4.213430906,182.3125551,5.5,'11111222,11111222,11111222' 
TABS,ioos:station:wmo:42047:1,2006-08-28T06:00:00Z,27.8966,-93.5973,4.0,4.077106817,189.6011288,5.12,'11111222,11111222,11111222' 
TABS,ioos:station:wmo:42047:1,2006-08-28T06:30:00Z,27.8966,-93.5973,4.0,4.123166259,189.2112155,5.51,'11111222,11111222,11111222' 
TABS,ioos:station:wmo:42047:1,2006-08-28T07:00:00Z,27.8966,-93.5973,4.0,4.157691667,191.0939075,5.97,'11111222,11111222,11111222' 
TABS,ioos:station:wmo:42047:1,2006-08-28T07:30:00Z,27.8966,-93.5973,4.0,4.064701711,187.4923728,5.23,'11111222,11111222,11111222' 
TABS,ioos:station:wmo:42047:1,2006-08-28T08:00:00Z,27.8966,-93.5973,4.0,3.948075481,190.6555002,5.34,'11111222,11111222,11111222' 
TABS,ioos:station:wmo:42047:1,2006-08-28T08:30:00Z,27.8966,-93.5973,4.0,4.475913315,182.945711,5.64,'11111222,11111222,11111222' 
TABS,ioos:station:wmo:42047:1,2006-08-28T09:00:00Z,27.8966,-93.5973,4.0,4.048357692,183.6824759,5.33,'11111222,11111222,11111222' 
TABS,ioos:station:wmo:42047:1,2006-08-28T09:30:00Z,27.8966,-93.5973,4.0,4.051789728,191.5319765,5.25,'11111222,11111222,11111222' 
TABS,ioos:station:wmo:42047:1,2006-08-28T10:00:00Z,27.8966,-93.5973,4.0,3.773618953,190.5358981,4.73,'11111222,11111222,11111222' 
TABS,ioos:station:wmo:42047:1,2006-08-28T10:30:00Z,27.8966,-93.5973,4.0,3.234455132,192.3176377,4.28,'11111222,11111222,11111222' 
TABS,ioos:station:wmo:42047:1,2006-08-28T11:00:00Z,27.8966,-93.5973,4.0,2.943637206,200.8979271,3.94,'11111222,11111222,11111222' 
TABS,ioos:station:wmo:42047:1,2006-08-28T11:30:00Z,27.8966,-93.5973,4.0,2.855240795,204.4108932,3.94,'11111222,11111222,11111222' 
TABS,ioos:station:wmo:42047:1,2006-08-28T12:00:00Z,27.8966,-93.5973,4.0,3.751612986,181.6804009,4.66,'11111222,11111222,11111222' 
TABS,ioos:station:wmo:42047:1,2006-08-28T12:30:00Z,27.8966,-93.5973,4.0,3.430932818,178.6641111,4.67,'11111222,11111222,11111222' 
TABS,ioos:station:wmo:42047:1,2006-08-28T13:00:00Z,27.8966,-93.5973,4.0,2.991621634,198.9196344,4.21,'11111222,11111222,11111222' 
TABS,ioos:station:wmo:42047:1,2006-08-28T13:30:00Z,27.8966,-93.5973,4.0,3.047950131,184.13939,4.18,'11111222,11111222,11111222' 
TABS,ioos:station:wmo:42047:1,2006-08-28T14:00:00Z,27.8966,-93.5973,4.0,3.39889688,190.6819724,4.24,'11111222,11111222,11111222' 
TABS,ioos:station:wmo:42047:1,2006-08-28T14:30:00Z,27.8966,-93.5973,4.0,3.433729751,177.3294633,4.35,'11111222,11111222,11111222' 
TABS,ioos:station:wmo:42047:1,2006-08-28T15:00:00Z,27.8966,-93.5973,4.0,3.087345138,172.368794,4.14,'11111222,11111222,11111222' 
TABS,ioos:station:wmo:42047:1,2006-08-28T15:30:00Z,27.8966,-93.5973,4.0,2.976188838,162.6002888,4.15,'11111222,11111222,11111222' 
TABS,ioos:station:wmo:42047:1,2006-08-28T16:00:00Z,27.8966,-93.5973,4.0,2.893890115,154.4092421,3.87,'11111222,11111222,11111222' 
TABS,ioos:station:wmo:42047:1,2006-08-28T16:30:00Z,27.8966,-93.5973,4.0,2.036663939,162.2770153,3.02,'11111222,11111222,11111222' 
TABS,ioos:station:wmo:42047:1,2006-08-28T17:00:00Z,27.8966,-93.5973,4.0,1.578480282,157.6596147,2.57,'11111222,11111222,11111222' 
TABS,ioos:station:wmo:42047:1,2006-08-28T17:30:00Z,27.8966,-93.5973,4.0,1.427620398,155.5895277,2.3,'11111222,11111222,11111222' 
TABS,ioos:station:wmo:42047:1,2006-08-28T18:00:00Z,27.8966,-93.5973,4.0,1.522662142,176.6116614,2.57,'11111222,11111222,11111222' 
TABS,ioos:station:wmo:42047:1,2006-08-28T18:30:00Z,27.8966,-93.5973,4.0,1.736231551,146.035644,2.71,'11111222,11111222,11111222' 